Overview Statistics Trail Chart Weather Telemetry Raw packets
 

This is the latest recevied weather packets stored in our database for station/object KD7CIH. If no packets are shown the sender has not sent any weather packets the latest 10 day(s).

<< 105 106 107 108 109 110 111 >>
Time Temp. Humidity Pressure Rain* Wind** Luminosity Snow
1787910761 16.11° C 52% 1018.7 hPa 0 mm - - -
1787910462 16.11° C 52% 1018.6 hPa 0 mm - - -
1787910161 16.11° C 53% 1018.7 hPa 0 mm - - -
1787909736 16.11° C 54% 1018.6 hPa 0 mm - - -
1787909435 15.56° C 55% 1018.6 hPa 0 mm - - -
1787909137 15.56° C 54% 1018.6 hPa 0 mm - - -
1787908835 15.56° C 54% 1018.7 hPa 0 mm - - -
1787908536 15.56° C 54% 1018.8 hPa 0 mm - - -
1787908235 15.56° C 54% 1018.8 hPa 0 mm - - -
1787907935 15.56° C 54% 1018.9 hPa 0 mm - - -
1787907634 15.56° C 53% 1018.9 hPa 0 mm - - -
1787907333 15.56° C 53% 1019 hPa 0 mm - - -
1787907033 15.56° C 53% 1019 hPa 0 mm - - -
1787906735 15.56° C 52% 1019.3 hPa 0 mm - - -
1787906434 16.11° C 51% 1019.3 hPa 0 mm - - -
1787906260 16.67° C 50% 1019.5 hPa 0 mm - - -
1787905835 17.22° C 49% 1019.4 hPa 0 mm - - -
1787905662 18.33° C 46% 1019.4 hPa 0 mm - - -
1787905363 18.33° C 45% 1019.4 hPa 0 mm - - -
1787904934 18.89° C 44% 1019.3 hPa 0 mm - - -
1787904633 18.89° C 45% 1019.4 hPa 0 mm - - -
1787904333 18.33° C 47% 1019.5 hPa 0 mm - - -
1787904035 18.33° C 46% 1019.4 hPa 0 mm - - -
1787903734 18.89° C 47% 1019.4 hPa 0 mm - - -
1787903433 18.89° C 48% 1019.5 hPa 0 mm - - -

* Rain latest hour (hover to see other rain measurements)
** Current wind speed in m/s (hover to see current wind gust speed)